Time,TemperatureF,DewpointF,PressureIn,WindDirection,WindDirectionDegrees,WindSpeedMPH,WindSpeedGustMPH,Humidity,HourlyPrecipIn,Conditions,Clouds,dailyrainin,SoftwareType,DateUTC
2013-01-08 00:02:00,49.0,-99.9,30.23,SSE,153,5.0,7.0,-999,-99.99,,,-99.99,,2013-01-08 08:02:00,
2013-01-08 00:12:00,49.0,-99.9,30.24,South,180,2.0,6.0,-999,-99.99,,,-99.99,,2013-01-08 08:12:00,
2013-01-08 00:22:00,49.0,-99.9,30.23,SSE,164,2.0,6.0,-999,-99.99,,,-99.99,,2013-01-08 08:22:00,
2013-01-08 00:32:00,49.0,-99.9,30.23,South,174,6.0,9.0,-999,-99.99,,,-99.99,,2013-01-08 08:32:00,
2013-01-08 00:42:00,49.0,-99.9,30.22,South,177,6.0,8.0,-999,-99.99,,,-99.99,,2013-01-08 08:42:00,
2013-01-08 00:53:00,49.0,-99.9,30.22,South,171,4.0,8.0,-999,-99.99,,,-99.99,,2013-01-08 08:53:00,
2013-01-08 01:02:00,49.0,-99.9,30.22,South,171,5.0,8.0,-999,-99.99,,,-99.99,,2013-01-08 09:02:00,
2013-01-08 01:12:00,49.0,-99.9,30.22,SSE,167,5.0,6.0,-999,-99.99,,,-99.99,,2013-01-08 09:12:00,
2013-01-08 01:22:00,49.0,-99.9,30.22,South,191,8.0,13.0,-999,-99.99,,,-99.99,,2013-01-08 09:22:00,
2013-01-08 01:33:00,49.0,-99.9,30.22,South,185,4.0,10.0,-999,-99.99,,,-99.99,,2013-01-08 09:33:00,
2013-01-08 01:42:00,49.0,-99.9,30.21,SSW,201,7.0,11.0,-999,-99.99,,,-99.99,,2013-01-08 09:42:00,
2013-01-08 01:53:00,49.0,-99.9,30.20,South,187,8.0,12.0,-999,-99.99,,,-99.99,,2013-01-08 09:53:00,
2013-01-08 02:03:00,49.0,-99.9,30.20,South,180,8.0,11.0,-999,-99.99,,,-99.99,,2013-01-08 10:03:00,
2013-01-08 02:12:00,49.0,-99.9,30.20,South,182,11.0,16.0,-999,-99.99,,,-99.99,,2013-01-08 10:12:00,
2013-01-08 02:22:00,49.0,-99.9,30.20,South,181,10.0,16.0,-999,-99.99,,,-99.99,,2013-01-08 10:22:00,
2013-01-08 02:33:00,49.0,-99.9,30.20,South,184,12.0,19.0,-999,-99.99,,,-99.99,,2013-01-08 10:33:00,
2013-01-08 02:43:00,49.0,-99.9,30.20,South,180,13.0,20.0,-999,-99.99,,,-99.99,,2013-01-08 10:43:00,
2013-01-08 02:53:00,49.0,-99.9,30.20,SSW,196,12.0,19.0,-999,-99.99,,,-99.99,,2013-01-08 10:53:00,
2013-01-08 03:02:00,49.0,-99.9,30.19,South,184,11.0,21.0,-999,-99.99,,,-99.99,,2013-01-08 11:02:00,
2013-01-08 03:12:00,49.0,-99.9,30.19,SSW,192,9.0,17.0,-999,-99.99,,,-99.99,,2013-01-08 11:12:00,
2013-01-08 03:23:00,49.0,-99.9,30.19,SSW,195,12.0,20.0,-999,-99.99,,,-99.99,,2013-01-08 11:23:00,
2013-01-08 03:33:00,49.0,-99.9,30.19,South,190,13.0,21.0,-999,-99.99,,,-99.99,,2013-01-08 11:33:00,
2013-01-08 03:43:00,49.0,-99.9,30.18,SSW,197,15.0,24.0,-999,-99.99,,,-99.99,,2013-01-08 11:43:00,
2013-01-08 03:53:00,49.0,-99.9,30.18,SSW,194,14.0,21.0,-999,-99.99,,,-99.99,,2013-01-08 11:53:00,
2013-01-08 04:03:00,49.0,-99.9,30.18,SSW,192,16.0,28.0,-999,-99.99,,,-99.99,,2013-01-08 12:03:00,
2013-01-08 04:12:00,49.0,-99.9,30.17,South,190,15.0,24.0,-999,-99.99,,,-99.99,,2013-01-08 12:12:00,
2013-01-08 04:22:00,49.0,-99.9,30.17,SSW,194,12.0,25.0,-999,-99.99,,,-99.99,,2013-01-08 12:22:00,
2013-01-08 04:33:00,49.0,-99.9,30.17,SSW,193,11.0,29.0,-999,-99.99,,,-99.99,,2013-01-08 12:33:00,
2013-01-08 04:43:00,49.0,-99.9,30.17,SSW,195,13.0,22.0,-999,-99.99,,,-99.99,,2013-01-08 12:43:00,
2013-01-08 04:53:00,50.0,-99.9,30.16,SSW,192,13.0,19.0,-999,-99.99,,,-99.99,,2013-01-08 12:53:00,
2013-01-08 05:03:00,50.0,-99.9,30.16,SSW,195,11.0,25.0,-999,-99.99,,,-99.99,,2013-01-08 13:03:00,
2013-01-08 05:13:00,50.0,-99.9,30.16,SSW,209,11.0,19.0,-999,-99.99,,,-99.99,,2013-01-08 13:13:00,
2013-01-08 05:22:00,50.0,-99.9,30.16,SSW,198,14.0,21.0,-999,-99.99,,,-99.99,,2013-01-08 13:22:00,
2013-01-08 05:33:00,50.0,-99.9,30.16,SSW,198,14.0,18.0,-999,-99.99,,,-99.99,,2013-01-08 13:33:00,
2013-01-08 05:43:00,50.0,-99.9,30.16,SSW,205,17.0,27.0,-999,-99.99,,,-99.99,,2013-01-08 13:43:00,
2013-01-08 05:53:00,50.0,-99.9,30.16,SSW,203,14.0,22.0,-999,-99.99,,,-99.99,,2013-01-08 13:53:00,
2013-01-08 06:03:00,50.0,-99.9,30.16,SSW,201,13.0,22.0,-999,-99.99,,,-99.99,,2013-01-08 14:03:00,
2013-01-08 06:13:00,50.0,-99.9,30.15,SSW,196,16.0,23.0,-999,-99.99,,,-99.99,,2013-01-08 14:13:00,
2013-01-08 06:23:00,50.0,-99.9,30.15,SSW,201,13.0,21.0,-999,-99.99,,,-99.99,,2013-01-08 14:23:00,
2013-01-08 06:33:00,50.0,-99.9,30.15,SSW,206,13.0,23.0,-999,-99.99,,,-99.99,,2013-01-08 14:33:00,
2013-01-08 06:43:00,50.0,-99.9,30.15,SSW,205,15.0,22.0,-999,-99.99,,,-99.99,,2013-01-08 14:43:00,
2013-01-08 06:53:00,50.0,-99.9,30.15,SSW,201,13.0,17.0,-999,-99.99,,,-99.99,,2013-01-08 14:53:00,
2013-01-08 07:03:00,50.0,-99.9,30.15,SSW,203,12.0,23.0,-999,-99.99,,,-99.99,,2013-01-08 15:03:00,
2013-01-08 07:12:00,50.0,-99.9,30.15,SSW,199,12.0,21.0,-999,-99.99,,,-99.99,,2013-01-08 15:12:00,
2013-01-08 07:23:00,50.0,-99.9,30.15,SSW,204,14.0,25.0,-999,-99.99,,,-99.99,,2013-01-08 15:23:00,
2013-01-08 07:33:00,50.0,-99.9,30.16,SSW,202,12.0,22.0,-999,-99.99,,,-99.99,,2013-01-08 15:33:00,
2013-01-08 07:43:00,50.0,-99.9,30.16,SSW,201,12.0,23.0,-999,-99.99,,,-99.99,,2013-01-08 15:43:00,
2013-01-08 07:53:00,50.0,-99.9,30.16,SSW,203,13.0,22.0,-999,-99.99,,,-99.99,,2013-01-08 15:53:00,
2013-01-08 08:03:00,50.0,-99.9,30.16,SSW,204,15.0,20.0,-999,-99.99,,,-99.99,,2013-01-08 16:03:00,
2013-01-08 08:13:00,50.0,-99.9,30.16,SW,219,11.0,23.0,-999,-99.99,,,-99.99,,2013-01-08 16:13:00,
2013-01-08 08:23:00,51.0,-99.9,30.16,SSW,201,11.0,18.0,-999,-99.99,,,-99.99,,2013-01-08 16:23:00,
2013-01-08 08:34:00,51.0,-99.9,30.16,SSW,202,13.0,19.0,-999,-99.99,,,-99.99,,2013-01-08 16:34:00,
2013-01-08 08:43:00,51.0,-99.9,30.17,SSW,210,9.0,15.0,-999,-99.99,,,-99.99,,2013-01-08 16:43:00,
2013-01-08 08:53:00,51.0,-99.9,30.17,SSW,213,12.0,21.0,-999,-99.99,,,-99.99,,2013-01-08 16:53:00,
2013-01-08 09:03:00,51.0,-99.9,30.17,SSW,210,13.0,20.0,-999,-99.99,,,-99.99,,2013-01-08 17:03:00,
2013-01-08 09:13:00,51.0,-99.9,30.17,SSW,200,11.0,19.0,-999,-99.99,,,-99.99,,2013-01-08 17:13:00,
2013-01-08 09:23:00,51.0,-99.9,30.17,SSW,199,13.0,20.0,-999,-99.99,,,-99.99,,2013-01-08 17:23:00,
2013-01-08 09:34:00,51.0,-99.9,30.17,South,189,11.0,18.0,-999,-99.99,,,-99.99,,2013-01-08 17:34:00,
2013-01-08 09:43:00,51.0,-99.9,30.17,SSW,203,15.0,22.0,-999,-99.99,,,-99.99,,2013-01-08 17:43:00,
2013-01-08 09:54:00,51.0,-99.9,30.16,SSW,199,14.0,26.0,-999,-99.99,,,-99.99,,2013-01-08 17:54:00,
2013-01-08 10:04:00,51.0,-99.9,30.16,SSW,197,16.0,23.0,-999,-99.99,,,-99.99,,2013-01-08 18:04:00,
2013-01-08 10:13:00,51.0,-99.9,30.16,South,188,18.0,30.0,-999,-99.99,,,-99.99,,2013-01-08 18:13:00,
2013-01-08 10:24:00,51.0,-99.9,30.16,SSW,197,19.0,28.0,-999,-99.99,,,-99.99,,2013-01-08 18:24:00,
2013-01-08 10:33:00,51.0,-99.9,30.16,SSW,196,13.0,22.0,-999,-99.99,,,-99.99,,2013-01-08 18:33:00,
2013-01-08 10:43:00,51.0,-99.9,30.16,South,191,18.0,24.0,-999,-99.99,,,-99.99,,2013-01-08 18:43:00,
2013-01-08 10:53:00,51.0,-99.9,30.16,SSW,195,11.0,23.0,-999,-99.99,,,-99.99,,2013-01-08 18:53:00,
2013-01-08 11:03:00,51.0,-99.9,30.16,South,191,17.0,25.0,-999,-99.99,,,-99.99,,2013-01-08 19:03:00,
2013-01-08 11:12:00,51.0,-99.9,30.16,SSW,196,14.0,26.0,-999,-99.99,,,-99.99,,2013-01-08 19:12:00,
2013-01-08 11:23:00,51.0,-99.9,30.16,South,190,15.0,25.0,-999,-99.99,,,-99.99,,2013-01-08 19:23:00,
2013-01-08 11:33:00,51.0,-99.9,30.16,SSW,193,17.0,23.0,-999,-99.99,,,-99.99,,2013-01-08 19:33:00,
2013-01-08 11:43:00,51.0,-99.9,30.15,SSW,196,17.0,26.0,-999,-99.99,,,-99.99,,2013-01-08 19:43:00,
2013-01-08 11:53:00,51.0,-99.9,30.15,South,191,16.0,22.0,-999,-99.99,,,-99.99,,2013-01-08 19:53:00,
2013-01-08 12:03:00,51.0,-99.9,30.16,SSW,201,15.0,24.0,-999,-99.99,,,-99.99,,2013-01-08 20:03:00,
2013-01-08 12:12:00,50.0,-99.9,30.16,SSW,205,13.0,22.0,-999,-99.99,,,-99.99,,2013-01-08 20:12:00,
2013-01-08 12:23:00,51.0,-99.9,30.15,South,191,15.0,24.0,-999,-99.99,,,-99.99,,2013-01-08 20:23:00,
2013-01-08 12:33:00,51.0,-99.9,30.14,SSW,198,14.0,34.0,-999,-99.99,,,-99.99,,2013-01-08 20:33:00,
2013-01-08 12:43:00,51.0,-99.9,30.14,SSW,202,17.0,26.0,-999,-99.99,,,-99.99,,2013-01-08 20:43:00,
2013-01-08 12:54:00,51.0,-99.9,30.14,SSW,197,16.0,28.0,-999,-99.99,,,-99.99,,2013-01-08 20:54:00,
2013-01-08 13:03:00,51.0,-99.9,30.14,SSW,195,15.0,27.0,-999,-99.99,,,-99.99,,2013-01-08 21:03:00,
2013-01-08 13:13:00,51.0,-99.9,30.14,SSW,206,14.0,23.0,-999,-99.99,,,-99.99,,2013-01-08 21:13:00,
2013-01-08 13:23:00,51.0,-99.9,30.13,SSW,203,15.0,26.0,-999,-99.99,,,-99.99,,2013-01-08 21:23:00,
2013-01-08 13:33:00,51.0,-99.9,30.13,South,191,13.0,23.0,-999,-99.99,,,-99.99,,2013-01-08 21:33:00,
2013-01-08 13:43:00,51.0,-99.9,30.13,SSW,198,17.0,32.0,-999,-99.99,,,-99.99,,2013-01-08 21:43:00,
2013-01-08 13:53:00,51.0,-99.9,30.13,SSW,201,17.0,27.0,-999,-99.99,,,-99.99,,2013-01-08 21:53:00,
2013-01-08 14:04:00,51.0,-99.9,30.12,SSW,201,15.0,23.0,-999,-99.99,,,-99.99,,2013-01-08 22:04:00,
2013-01-08 14:13:00,51.0,-99.9,30.11,SSW,200,14.0,22.0,-999,-99.99,,,-99.99,,2013-01-08 22:13:00,
2013-01-08 14:23:00,51.0,-99.9,30.10,SSW,201,11.0,20.0,-999,-99.99,,,-99.99,,2013-01-08 22:23:00,
2013-01-08 14:33:00,51.0,-99.9,30.11,SSW,201,13.0,23.0,-999,-99.99,,,-99.99,,2013-01-08 22:33:00,
2013-01-08 14:43:00,51.0,-99.9,30.10,SSW,200,11.0,27.0,-999,-99.99,,,-99.99,,2013-01-08 22:43:00,
2013-01-08 14:53:00,51.0,-99.9,30.10,SSW,194,15.0,23.0,-999,-99.99,,,-99.99,,2013-01-08 22:53:00,
2013-01-08 15:03:00,51.0,-99.9,30.10,SSW,202,15.0,23.0,-999,-99.99,,,-99.99,,2013-01-08 23:03:00,
2013-01-08 15:13:00,51.0,-99.9,30.10,South,187,15.0,25.0,-999,-99.99,,,-99.99,,2013-01-08 23:13:00,
2013-01-08 15:23:00,51.0,-99.9,30.10,South,189,14.0,23.0,-999,-99.99,,,-99.99,,2013-01-08 23:23:00,
2013-01-08 15:33:00,51.0,-99.9,30.09,SSW,200,15.0,23.0,-999,-99.99,,,-99.99,,2013-01-08 23:33:00,
2013-01-08 15:43:00,51.0,-99.9,30.09,South,191,20.0,27.0,-999,-99.99,,,-99.99,,2013-01-08 23:43:00,
2013-01-08 15:53:00,51.0,-99.9,30.09,South,189,14.0,27.0,-999,-99.99,,,-99.99,,2013-01-08 23:53:00,
2013-01-08 16:03:00,51.0,-99.9,30.09,SSW,195,13.0,26.0,-999,-99.99,,,-99.99,,2013-01-09 00:03:00,
2013-01-08 16:13:00,51.0,-99.9,30.08,South,189,16.0,24.0,-999,-99.99,,,-99.99,,2013-01-09 00:13:00,
2013-01-08 16:22:00,51.0,-99.9,30.08,South,188,17.0,25.0,-999,-99.99,,,-99.99,,2013-01-09 00:22:00,
2013-01-08 16:33:00,51.0,-99.9,30.08,South,189,12.0,31.0,-999,-99.99,,,-99.99,,2013-01-09 00:33:00,
2013-01-08 16:43:00,51.0,-99.9,30.07,South,188,18.0,26.0,-999,-99.99,,,-99.99,,2013-01-09 00:43:00,
2013-01-08 16:53:00,51.0,-99.9,30.07,SSW,196,15.0,26.0,-999,-99.99,,,-99.99,,2013-01-09 00:53:00,
2013-01-08 17:02:00,51.0,-99.9,30.07,SSW,193,21.0,28.0,-999,-99.99,,,-99.99,,2013-01-09 01:02:00,
2013-01-08 17:12:00,51.0,-99.9,30.07,SSW,198,17.0,23.0,-999,-99.99,,,-99.99,,2013-01-09 01:12:00,
2013-01-08 17:22:00,51.0,-99.9,30.06,SSW,193,15.0,28.0,-999,-99.99,,,-99.99,,2013-01-09 01:22:00,
2013-01-08 17:33:00,51.0,-99.9,30.06,SSW,198,14.0,24.0,-999,-99.99,,,-99.99,,2013-01-09 01:33:00,
2013-01-08 17:43:00,51.0,-99.9,30.05,South,186,17.0,26.0,-999,-99.99,,,-99.99,,2013-01-09 01:43:00,
2013-01-08 17:53:00,50.0,-99.9,30.04,South,176,15.0,27.0,-999,-99.99,,,-99.99,,2013-01-09 01:53:00,
2013-01-08 18:02:00,50.0,-99.9,30.05,SSW,206,16.0,23.0,-999,-99.99,,,-99.99,,2013-01-09 02:02:00,
2013-01-08 18:12:00,50.0,-99.9,30.05,South,191,17.0,25.0,-999,-99.99,,,-99.99,,2013-01-09 02:12:00,
2013-01-08 18:23:00,50.0,-99.9,30.05,SSW,197,18.0,34.0,-999,-99.99,,,-99.99,,2013-01-09 02:23:00,
2013-01-08 18:33:00,50.0,-99.9,30.04,South,191,15.0,21.0,-999,-99.99,,,-99.99,,2013-01-09 02:33:00,
2013-01-08 18:43:00,50.0,-99.9,30.04,SSW,195,15.0,25.0,-999,-99.99,,,-99.99,,2013-01-09 02:43:00,
2013-01-08 18:53:00,50.0,-99.9,30.04,South,187,14.0,28.0,-999,-99.99,,,-99.99,,2013-01-09 02:53:00,
2013-01-08 19:03:00,50.0,-99.9,30.04,South,186,14.0,20.0,-999,-99.99,,,-99.99,,2013-01-09 03:03:00,
2013-01-08 19:12:00,50.0,-99.9,30.04,SSW,195,20.0,27.0,-999,-99.99,,,-99.99,,2013-01-09 03:12:00,
2013-01-08 19:22:00,50.0,-99.9,30.03,South,188,13.0,23.0,-999,-99.99,,,-99.99,,2013-01-09 03:22:00,
2013-01-08 19:33:00,50.0,-99.9,30.03,South,183,17.0,26.0,-999,-99.99,,,-99.99,,2013-01-09 03:33:00,
2013-01-08 19:43:00,50.0,-99.9,30.02,South,183,16.0,24.0,-999,-99.99,,,-99.99,,2013-01-09 03:43:00,
2013-01-08 19:53:00,50.0,-99.9,30.02,South,180,18.0,26.0,-999,-99.99,,,-99.99,,2013-01-09 03:53:00,
2013-01-08 20:02:00,50.0,-99.9,30.01,South,188,17.0,24.0,-999,-99.99,,,-99.99,,2013-01-09 04:02:00,
2013-01-08 20:12:00,50.0,-99.9,30.01,SSW,194,16.0,23.0,-999,-99.99,,,-99.99,,2013-01-09 04:12:00,
2013-01-08 20:23:00,50.0,-99.9,30.02,South,191,14.0,27.0,-999,-99.99,,,-99.99,,2013-01-09 04:23:00,
2013-01-08 20:33:00,50.0,-99.9,30.01,South,187,13.0,21.0,-999,-99.99,,,-99.99,,2013-01-09 04:33:00,
2013-01-08 20:43:00,50.0,-99.9,30.01,South,182,16.0,21.0,-999,-99.99,,,-99.99,,2013-01-09 04:43:00,
2013-01-08 20:53:00,50.0,-99.9,30.01,South,184,15.0,21.0,-999,-99.99,,,-99.99,,2013-01-09 04:53:00,
2013-01-08 21:03:00,50.0,-99.9,30.01,South,191,12.0,21.0,-999,-99.99,,,-99.99,,2013-01-09 05:03:00,
2013-01-08 21:12:00,50.0,-99.9,30.00,South,187,16.0,23.0,-999,-99.99,,,-99.99,,2013-01-09 05:12:00,
2013-01-08 21:22:00,50.0,-99.9,30.00,South,189,16.0,28.0,-999,-99.99,,,-99.99,,2013-01-09 05:22:00,
2013-01-08 21:33:00,50.0,-99.9,30.00,South,181,14.0,24.0,-999,-99.99,,,-99.99,,2013-01-09 05:33:00,
2013-01-08 21:43:00,50.0,-99.9,30.00,SSW,192,13.0,25.0,-999,-99.99,,,-99.99,,2013-01-09 05:43:00,
2013-01-08 21:53:00,50.0,-99.9,30.00,SSW,195,12.0,17.0,-999,-99.99,,,-99.99,,2013-01-09 05:53:00,
2013-01-08 22:02:00,50.0,-99.9,30.00,South,189,17.0,26.0,-999,-99.99,,,-99.99,,2013-01-09 06:02:00,
2013-01-08 22:12:00,50.0,-99.9,29.99,South,188,16.0,25.0,-999,-99.99,,,-99.99,,2013-01-09 06:12:00,
2013-01-08 22:22:00,50.0,-99.9,30.00,SSW,197,17.0,25.0,-999,-99.99,,,-99.99,,2013-01-09 06:22:00,
2013-01-08 22:32:00,50.0,-99.9,29.98,South,177,17.0,26.0,-999,-99.99,,,-99.99,,2013-01-09 06:32:00,
2013-01-08 22:43:00,50.0,-99.9,29.98,SSW,202,14.0,20.0,-999,-99.99,,,-99.99,,2013-01-09 06:43:00,
2013-01-08 22:53:00,50.0,-99.9,29.98,South,189,12.0,22.0,-999,-99.99,,,-99.99,,2013-01-09 06:53:00,
2013-01-08 23:02:00,50.0,-99.9,29.97,South,189,12.0,15.0,-999,-99.99,,,-99.99,,2013-01-09 07:02:00,
2013-01-08 23:12:00,49.0,-99.9,29.98,SSW,198,13.0,22.0,-999,-99.99,,,-99.99,,2013-01-09 07:12:00,
2013-01-08 23:22:00,49.0,-99.9,29.98,SSW,200,15.0,25.0,-999,-99.99,,,-99.99,,2013-01-09 07:22:00,
2013-01-08 23:32:00,49.0,-99.9,29.97,SSW,200,15.0,26.0,-999,-99.99,,,-99.99,,2013-01-09 07:32:00,
2013-01-08 23:43:00,49.0,-99.9,29.96,South,189,16.0,28.0,-999,-99.99,,,-99.99,,2013-01-09 07:43:00,
2013-01-08 23:53:00,49.0,-99.9,29.96,South,184,12.0,20.0,-999,-99.99,,,-99.99,,2013-01-09 07:53:00,